Location: Beddau
(51.5575°N, 3.3561°W)
Time: 17:59:10
(UTC+00:00)

SJ 16-02 - Pass Details

Date: 03 March 2021
Orbit: 605 x 617 km, 75.0° (Epoch: 13 April)

Event Time Altitude Azimuth Distance (km) Brightness Sun altitude
Rises 19:32:27 0° 342° (NNW) 2,884 5.2 -15.5°
Reaches altitude 10° 19:34:57 10° 354° (N) 1,977 4.1 -15.9°
Maximum altitude 19:38:50 30° 55° (NE) 1,120 2.3 -16.5°
Enters shadow 19:39:32 28° 73° (ENE) 1,159 2.2 -16.6°
